UAL4209 KLAX-KLAS

Flight info

Callsign UAL4209
Flight time N/A
Altitude 29000
Route ORCKA5 MISEN RNDRZ4
Aircraft B735/M-SDFHIW/S

Departure

Time 2026-04-23 16:13
Airport Los Angeles International Airport (KLAX)

Arrival

Time N/A
Airport Harry Reid International Airport (KLAS)
Time Latitude Longitude Altitude Speed Heading
2026-04-23 15:51 33.94087 -118.40256 126 ft 0 kts 96°
2026-04-23 16:00 33.94087 -118.40258 126 ft 2 kts 96°
2026-04-23 16:00 33.94087 -118.40273 121 ft 4 kts 89°
2026-04-23 16:00 33.94084 -118.40306 124 ft 4 kts 78°
2026-04-23 16:00 33.94078 -118.40337 125 ft 4 kts 81°
2026-04-23 16:01 33.94077 -118.40353 126 ft 1 kts 86°
2026-04-23 16:01 33.94077 -118.40355 126 ft 0 kts 86°
2026-04-23 16:05 33.94074 -118.40331 125 ft 4 kts 112°
2026-04-23 16:05 33.94050 -118.40314 126 ft 5 kts 167°
2026-04-23 16:05 33.94033 -118.40311 123 ft 0 kts 172°
2026-04-23 16:07 33.94009 -118.40307 123 ft 5 kts 172°
2026-04-23 16:07 33.93971 -118.40301 123 ft 5 kts 171°
2026-04-23 16:07 33.93937 -118.40295 122 ft 5 kts 178°
2026-04-23 16:08 33.93896 -118.40291 122 ft 6 kts 175°
2026-04-23 16:08 33.93858 -118.40268 124 ft 6 kts 120°
2026-04-23 16:08 33.93856 -118.40212 125 ft 8 kts 84°
2026-04-23 16:08 33.93864 -118.40135 124 ft 10 kts 83°
2026-04-23 16:09 33.93872 -118.40047 126 ft 12 kts 83°
2026-04-23 16:09 33.93883 -118.39942 121 ft 14 kts 82°
2026-04-23 16:09 33.93897 -118.39821 122 ft 16 kts 82°
2026-04-23 16:09 33.93911 -118.39681 122 ft 18 kts 83°
2026-04-23 16:10 33.93926 -118.39529 121 ft 19 kts 83°
2026-04-23 16:10 33.93942 -118.39371 122 ft 18 kts 83°
2026-04-23 16:10 33.93955 -118.39246 122 ft 13 kts 82°
2026-04-23 16:10 33.93964 -118.39155 125 ft 9 kts 84°
2026-04-23 16:11 33.93971 -118.39085 124 ft 7 kts 82°
2026-04-23 16:11 33.93966 -118.39020 122 ft 7 kts 127°
2026-04-23 16:11 33.93926 -118.38999 125 ft 6 kts 181°
2026-04-23 16:11 33.93890 -118.39024 122 ft 7 kts 226°
2026-04-23 16:12 33.93878 -118.39055 125 ft 3 kts 264°
2026-04-23 16:12 33.93874 -118.39094 126 ft 5 kts 264°
2026-04-23 16:12 33.93870 -118.39145 126 ft 10 kts 263°
2026-04-23 16:12 33.93854 -118.39304 126 ft 35 kts 262°
2026-04-23 16:13 33.93798 -118.39850 124 ft 98 kts 263°
2026-04-23 16:13 33.93568 -118.42428 446 ft 190 kts 271°
2026-04-23 16:13 33.93647 -118.44004 1416 ft 184 kts 274°
2026-04-23 16:14 33.93659 -118.45620 1993 ft 206 kts 259°
2026-04-23 16:14 33.92995 -118.47245 2554 ft 227 kts 234°
2026-04-23 16:14 33.92257 -118.49011 2824 ft 254 kts 262°
2026-04-23 16:14 33.92337 -118.51188 2938 ft 261 kts 279°
2026-04-23 16:15 33.92427 -118.53361 3001 ft 260 kts 269°
2026-04-23 16:15 33.92293 -118.55531 3053 ft 267 kts 265°
2026-04-23 16:15 33.92078 -118.57756 3006 ft 266 kts 264°
2026-04-23 16:15 33.91845 -118.59948 3005 ft 262 kts 264°
2026-04-23 16:16 33.91617 -118.62124 3022 ft 264 kts 264°
2026-04-23 16:16 33.91395 -118.64303 3001 ft 261 kts 264°
2026-04-23 16:16 33.91164 -118.66434 2816 ft 257 kts 262°
2026-04-23 16:16 33.90511 -118.68426 2859 ft 261 kts 230°
2026-04-23 16:17 33.88999 -118.69663 3015 ft 271 kts 196°
2026-04-23 16:17 33.87149 -118.69708 3023 ft 268 kts 162°
2026-04-23 16:17 33.85624 -118.68534 2998 ft 261 kts 127°
2026-04-23 16:17 33.84933 -118.66618 2878 ft 249 kts 94°
2026-04-23 16:18 33.85193 -118.64537 3070 ft 255 kts 72°
2026-04-23 16:18 33.85785 -118.62519 3856 ft 256 kts 66°
2026-04-23 16:18 33.86527 -118.60511 4519 ft 269 kts 64°
2026-04-23 16:18 33.87321 -118.58478 4812 ft 268 kts 63°
2026-04-23 16:19 33.88129 -118.56439 5093 ft 273 kts 63°
2026-04-23 16:19 33.88946 -118.54368 5757 ft 273 kts 63°
2026-04-23 16:19 33.89762 -118.52292 6576 ft 277 kts 63°
2026-04-23 16:19 33.90596 -118.50174 7391 ft 283 kts 62°
2026-04-23 16:20 33.91450 -118.48005 8206 ft 290 kts 62°
2026-04-23 16:20 33.92302 -118.45823 8877 ft 289 kts 62°
2026-04-23 16:20 33.93280 -118.43614 9382 ft 304 kts 55°
2026-04-23 16:20 33.94434 -118.41484 10363 ft 305 kts 52°
2026-04-23 16:21 33.95659 -118.39357 10864 ft 322 kts 51°
2026-04-23 16:21 33.96945 -118.37122 11569 ft 326 kts 52°
2026-04-23 16:21 33.98240 -118.34838 12237 ft 334 kts 52°
2026-04-23 16:21 33.99559 -118.32497 12683 ft 333 kts 52°
2026-04-23 16:22 34.00875 -118.30151 12382 ft 355 kts 52°
2026-04-23 16:22 34.02275 -118.27677 13364 ft 349 kts 51°
2026-04-23 16:22 34.03637 -118.25265 14323 ft 353 kts 51°
2026-04-23 16:22 34.05044 -118.22787 14928 ft 362 kts 51°
2026-04-23 16:23 34.06462 -118.20285 15752 ft 360 kts 51°
2026-04-23 16:23 34.07891 -118.17762 16307 ft 370 kts 51°
2026-04-23 16:23 34.09369 -118.15163 16906 ft 378 kts 51°
2026-04-23 16:23 34.10814 -118.12597 17723 ft 364 kts 52°
2026-04-23 16:24 34.12242 -118.10044 17642 ft 376 kts 52°
2026-04-23 16:24 34.13757 -118.07369 18101 ft 387 kts 52°
2026-04-23 16:24 34.15263 -118.04693 19064 ft 385 kts 52°
2026-04-23 16:24 34.16663 -118.02201 19498 ft 395 kts 52°